Date String (YYYY-MM-DD hh:mm:ss) UTC,Instrument flags,absolute air pressure of the measurement (hPa),sample flow rate (lpm),inlet stack bypass flow (lpm),air temperature of the measurement (°C),ambient temperature measured by the external sensor (°C),aerosol sample conditioner tube jacket temperature (°C),OPC LED temperature (°C),internal box temperature (°C),relative humidity of the measurement (%),span deviation,mass concentration of particles derived from Lorenz-Mie calculation of OPC scattering (μg/m³),mass concentration of particles derived from Lorenz-Mie calculation of OPC scattering (μg/m³),mass concentration of particles derived from Lorenz-Mie calculation of OPC scattering (μg/m³)
DateTimeUTC,F1_M11,P_M11,Q1_M11,Q2_M11,T1_M11,T2_M11,T3_M11,T4_M11,T5_M11,U1_M11,ZSPAN_M11,X0_M11,X2_M11,X1_M11
2024-04-06 09:00:00,SystemResetWarning,0809.8,5.00,000.00,023.2,022.1,000.0,031.9,025.0,014.9,0000.0,0037.04,0006.12,0001.95
2024-04-06 09:01:00,SystemResetWarning,0809.8,4.99,000.00,023.2,022.1,000.0,031.9,024.9,014.9,0000.0,0036.03,0006.04,0001.94
2024-04-06 09:02:00,SystemResetWarning,0809.7,4.99,000.00,023.2,022.1,000.0,031.9,024.9,014.9,0000.0,0035.35,0006.02,0001.95
2024-04-06 09:03:00,SystemResetWarning,0809.7,4.99,000.00,023.2,022.0,000.0,031.8,024.9,015.0,0000.0,0033.98,0006.02,0001.96
2024-04-06 09:04:00,SystemResetWarning,0809.7,5.00,000.00,023.1,022.0,000.0,031.8,024.9,015.0,0000.0,0033.54,0006.03,0001.98
2024-04-06 09:05:00,SystemResetWarning,0809.7,5.01,000.00,023.1,022.0,000.0,031.8,024.9,015.1,0000.0,0033.96,0006.05,0002.01
2024-04-06 09:06:00,SystemResetWarning,0809.6,5.01,000.00,023.1,022.0,000.0,031.8,024.9,015.2,0000.0,0034.11,0006.18,0002.01
2024-04-06 09:07:00,SystemResetWarning,0809.6,5.00,000.00,023.1,022.0,000.0,031.8,024.9,015.2,0000.0,0033.70,0006.24,0002.04
2024-04-06 09:08:00,SystemResetWarning,0809.7,4.99,000.00,023.1,022.0,000.0,031.8,024.9,015.2,0000.0,0033.68,0006.26,0002.03
2024-04-06 09:09:00,SystemResetWarning,0809.7,4.99,000.00,023.1,022.0,000.0,031.8,024.9,015.3,0000.0,0034.48,0006.27,0002.02
2024-04-06 09:10:00,SystemResetWarning,0809.6,5.01,000.00,023.1,022.0,000.0,031.8,024.9,015.4,0000.0,0034.50,0006.23,0002.04
2024-04-06 09:11:00,SystemResetWarning,0809.6,5.01,000.00,023.1,022.0,000.0,031.8,024.9,015.4,0000.0,0035.61,0006.29,0002.07
2024-04-06 09:12:00,SystemResetWarning,0809.6,5.00,000.00,023.1,022.0,000.0,031.8,024.9,015.4,0000.0,0036.37,0006.37,0002.09
2024-04-06 09:13:00,SystemResetWarning,0809.6,4.99,000.00,023.1,022.0,000.0,031.7,024.9,015.3,0000.0,0037.81,0006.45,0002.10
2024-04-06 09:14:00,SystemResetWarning,0809.5,4.99,000.00,023.1,022.0,000.0,031.7,024.9,015.3,0000.0,0039.62,0006.52,0002.10
2024-04-06 09:15:00,SystemResetWarning,0809.6,4.99,000.00,023.0,022.0,000.0,031.7,024.9,015.3,0000.0,0040.62,0006.60,0002.10
2024-04-06 09:16:00,SystemResetWarning,0809.5,5.00,000.00,023.0,022.0,000.0,031.7,024.8,015.2,0000.0,0041.56,0006.66,0002.10
2024-04-06 09:17:00,SystemResetWarning,0809.5,5.01,000.00,023.0,022.0,000.0,031.7,024.9,015.2,0000.0,0043.52,0006.72,0002.11
2024-04-06 09:18:00,SystemResetWarning,0809.5,5.01,000.00,023.0,022.0,000.0,031.7,024.9,015.2,0000.0,0043.02,0006.76,0002.10
2024-04-06 09:19:00,SystemResetWarning,0809.5,5.00,000.00,023.0,022.0,000.0,031.7,024.9,015.2,0000.0,0043.64,0006.77,0002.11
2024-04-06 09:20:00,SystemResetWarning,0809.5,5.00,000.00,023.0,022.0,000.0,031.7,024.9,015.2,0000.0,0043.13,0006.78,0002.12
2024-04-06 09:21:00,SystemResetWarning,0809.5,5.00,000.00,023.0,022.1,000.0,031.7,024.9,015.2,0000.0,0043.57,0006.86,0002.12
2024-04-06 09:22:00,SystemResetWarning,0809.6,5.00,000.00,023.0,022.1,000.0,031.7,024.8,015.3,0000.0,0043.30,0006.87,0002.10
2024-04-06 09:23:00,SystemResetWarning,0809.6,5.01,000.00,023.0,022.0,000.0,031.7,024.8,015.3,0000.0,0045.06,0006.87,0002.10
2024-04-06 09:24:00,SystemResetWarning,0809.6,5.01,000.00,023.0,022.0,000.0,031.7,024.8,015.4,0000.0,0044.33,0006.83,0002.08
2024-04-06 09:25:00,SystemResetWarning,0809.5,5.00,000.00,023.0,022.0,000.0,031.7,024.8,015.3,0000.0,0042.56,0006.81,0002.08
2024-04-06 09:26:00,SystemResetWarning,0809.5,4.99,000.00,023.0,022.0,000.0,031.7,024.8,015.3,0000.0,0041.99,0006.79,0002.09
2024-04-06 09:27:00,SystemResetWarning,0809.4,5.00,000.00,023.0,022.0,000.0,031.7,024.8,015.3,0000.0,0041.31,0006.73,0002.08
2024-04-06 09:28:00,SystemResetWarning,0809.4,4.99,000.00,023.0,022.0,000.0,031.6,024.8,015.3,0000.0,0038.95,0006.62,0002.07
2024-04-06 09:29:00,SystemResetWarning,0809.3,5.00,000.00,023.0,022.0,000.0,031.6,024.8,015.3,0000.0,0038.84,0006.53,0002.07
2024-04-06 09:30:00,SystemResetWarning,0809.3,5.00,000.00,023.0,022.0,000.0,031.6,024.8,015.4,0000.0,0039.53,0006.64,0002.08
2024-04-06 09:31:00,SystemResetWarning,0809.2,5.01,000.00,023.0,022.0,000.0,031.6,024.8,015.4,0000.0,0040.05,0006.58,0002.07
2024-04-06 09:32:00,SystemResetWarning,0809.2,5.00,000.00,023.0,021.9,000.0,031.6,024.8,015.4,0000.0,0039.53,0006.58,0002.08
2024-04-06 09:33:00,SystemResetWarning,0809.2,5.00,000.00,023.0,021.9,000.0,031.6,024.8,015.4,0000.0,0038.32,0006.57,0002.10
2024-04-06 09:34:00,SystemResetWarning,0809.2,5.00,000.00,023.0,022.0,000.0,031.6,024.8,015.5,0000.0,0036.54,0006.68,0002.13
2024-04-06 09:35:00,SystemResetWarning,0809.2,5.01,000.00,022.9,021.9,000.0,031.6,024.8,015.5,0000.0,0035.81,0006.76,0002.13
2024-04-06 09:36:00,SystemResetWarning,0809.2,4.99,000.00,022.9,021.9,000.0,031.6,024.7,015.6,0000.0,0035.21,0006.73,0002.14
2024-04-06 09:37:00,SystemResetWarning,0809.2,5.00,000.00,022.9,021.9,000.0,031.6,024.8,015.7,0000.0,0034.37,0006.70,0002.15
2024-04-06 09:38:00,SystemResetWarning,0809.3,5.00,000.00,022.9,022.0,000.0,031.6,024.8,015.6,0000.0,0034.47,0006.63,0002.15
2024-04-06 09:39:00,SystemResetWarning,0809.3,5.01,000.00,022.9,022.0,000.0,031.6,024.8,015.6,0000.0,0035.78,0006.63,0002.13
2024-04-06 09:40:00,SystemResetWarning,0809.3,5.01,000.00,022.9,022.0,000.0,031.6,024.7,015.7,0000.0,0035.04,0006.62,0002.12
2024-04-06 09:41:00,SystemResetWarning,0809.3,5.00,000.00,022.9,022.0,000.0,031.6,024.7,015.7,0000.0,0034.47,0006.49,0002.08
2024-04-06 09:42:00,SystemResetWarning,0809.2,4.98,000.00,022.9,022.0,000.0,031.6,024.7,015.7,0000.0,0031.34,0006.43,0002.07
2024-04-06 09:43:00,SystemResetWarning,0809.2,5.00,000.00,022.9,022.0,000.0,031.6,024.8,015.7,0000.0,0031.22,0006.41,0002.08
2024-04-06 09:44:00,SystemResetWarning,0809.3,5.00,000.00,022.9,022.0,000.0,031.5,024.8,015.8,0000.0,0030.97,0006.36,0002.06
2024-04-06 09:45:00,SystemResetWarning,0809.3,5.01,000.00,022.9,022.0,000.0,031.5,024.8,015.4,0000.0,0031.74,0006.27,0002.04
2024-04-06 09:46:00,SystemResetWarning,0809.2,5.00,000.00,022.9,022.0,000.0,031.5,024.7,015.4,0000.0,0030.85,0006.19,0002.04
2024-04-06 09:47:00,SystemResetWarning,0809.2,4.99,000.00,022.9,022.0,000.0,031.5,024.7,015.4,0000.0,0032.99,0006.20,0002.05
2024-04-06 09:48:00,SystemResetWarning,0809.3,4.99,000.00,022.9,022.0,000.0,031.5,024.7,015.4,0000.0,0034.81,0006.15,0002.06
2024-04-06 09:49:00,SystemResetWarning,0809.2,5.00,000.00,022.9,022.0,000.0,031.5,024.7,015.4,0000.0,0035.39,0006.27,0002.07
2024-04-06 09:50:00,SystemResetWarning,0809.2,5.01,000.00,022.9,022.0,000.0,031.5,024.7,015.4,0000.0,0035.88,0006.37,0002.09
2024-04-06 09:51:00,SystemResetWarning,0809.2,5.00,000.00,022.9,022.0,000.0,031.5,024.7,015.6,0000.0,0036.16,0006.40,0002.10
2024-04-06 09:52:00,SystemResetWarning,0809.2,5.01,000.00,022.9,022.0,000.0,031.5,024.7,015.7,0000.0,0035.30,0006.44,0002.12
2024-04-06 09:53:00,SystemResetWarning,0809.2,5.00,000.00,022.9,022.0,000.0,031.5,024.7,015.6,0000.0,0035.42,0006.42,0002.11
2024-04-06 09:54:00,SystemResetWarning,0809.3,4.99,000.00,022.9,022.0,000.0,031.5,024.8,015.5,0000.0,0035.42,0006.46,0002.11
2024-04-06 09:55:00,SystemResetWarning,0809.2,4.99,000.00,022.9,022.0,000.0,031.5,024.8,015.4,0000.0,0037.49,0006.46,0002.10
2024-04-06 09:56:00,SystemResetWarning,0809.1,5.01,000.00,022.9,022.0,000.0,031.5,024.7,015.4,0000.0,0037.57,0006.33,0002.06
2024-04-06 09:57:00,SystemResetWarning,0809.1,5.01,000.00,022.9,022.0,000.0,031.5,024.7,015.3,0000.0,0037.17,0006.34,0002.07
2024-04-06 09:58:00,SystemResetWarning,0809.1,5.01,000.00,022.9,022.0,000.0,031.5,024.8,015.3,0000.0,0036.44,0006.41,0002.10
2024-04-06 09:59:00,SystemResetWarning,0809.1,4.99,000.00,022.9,022.0,000.0,031.5,024.8,015.3,0000.0,0035.33,0006.49,0002.08
